| time (UTC) | temp F | wind direction | speed knots | gust knots | rain 1hr in | rain 24hr in | rain mn in | humidity % | barometer mb |
| 20260507155516 | 54 | 249 | 12.2 | 16.5 | 0.00 | 0.28 | 0.00 | 48 | 1017.6 |
| 20260507155014 | 54 | 230 | 11.3 | 15.6 | 0.00 | 0.28 | 0.00 | 49 | 1017.7 |
| 20260507154530 | 53 | 224 | 10.4 | 15.6 | 0.00 | 0.28 | 0.00 | 51 | 1017.8 |
| 20260507154015 | 52 | 213 | 11.3 | 15.6 | 0.00 | 0.28 | 0.00 | 50 | 1017.8 |
| 20260507153516 | 51 | 229 | 10.4 | 13.9 | 0.00 | 0.28 | 0.00 | 52 | 1017.7 |
| 20260507153032 | 51 | 200 | 11.3 | 15.6 | 0.00 | 0.28 | 0.00 | 50 | 1017.7 |
| 20260507152517 | 50 | 199 | 11.3 | 15.6 | 0.00 | 0.28 | 0.00 | 52 | 1017.6 |
| 20260507152018 | 50 | 212 | 10.4 | 14.8 | 0.00 | 0.28 | 0.00 | 52 | 1017.7 |
| 20260507151531 | 50 | 188 | 10.4 | 13.0 | 0.00 | 0.28 | 0.00 | 52 | 1017.7 |
| 20260507151016 | 50 | 209 | 9.6 | 15.6 | 0.00 | 0.28 | 0.00 | 54 | 1017.7 |
| 20260507150516 | 49 | 215 | 8.7 | 16.5 | 0.00 | 0.28 | 0.00 | 54 | 1017.7 |
| 20260507150036 | 49 | 239 | 11.3 | 16.5 | 0.00 | 0.28 | 0.00 | 53 | 1017.7 |
| 20260507145516 | 49 | 232 | 11.3 | 15.6 | 0.00 | 0.28 | 0.00 | 52 | 1017.6 |
| 20260507145020 | 48 | 237 | 11.3 | 17.4 | 0.00 | 0.28 | 0.00 | 52 | 1017.7 |
| 20260507144530 | 48 | 240 | 13.9 | 18.2 | 0.00 | 0.28 | 0.00 | 49 | 1017.6 |
| 20260507144016 | 47 | 220 | 12.2 | 18.2 | 0.00 | 0.28 | 0.00 | 52 | 1017.6 |
| 20260507143515 | 47 | 233 | 13.0 | 15.6 | 0.00 | 0.28 | 0.00 | 52 | 1017.7 |
| 20260507143032 | 47 | 228 | 12.2 | 17.4 | 0.00 | 0.28 | 0.00 | 53 | 1017.6 |
| 20260507142517 | 46 | 232 | 12.2 | 17.4 | 0.00 | 0.28 | 0.00 | 53 | 1017.5 |
| 20260507142019 | 45 | 228 | 12.2 | 16.5 | 0.00 | 0.28 | 0.00 | 53 | 1017.6 |
| 20260507141533 | 45 | 207 | 13.9 | 16.5 | 0.00 | 0.28 | 0.00 | 54 | 1017.4 |
| 20260507141018 | 44 | 237 | 13.0 | 16.5 | 0.00 | 0.28 | 0.00 | 54 | 1017.5 |
| 20260507140516 | 44 | 241 | 10.4 | 13.0 | 0.00 | 0.28 | 0.00 | 56 | 1017.5 |
| 20260507140041 | 43 | 235 | 7.8 | 14.8 | 0.00 | 0.28 | 0.00 | 56 | 1017.6 |
| 20260507135516 | 43 | 234 | 10.4 | 19.1 | 0.00 | 0.28 | 0.00 | 54 | 1017.6 |
| 20260507135018 | 43 | 235 | 13.0 | 20.9 | 0.00 | 0.28 | 0.00 | 54 | 1017.5 |
| 20260507134532 | 42 | 243 | 16.5 | 21.7 | 0.00 | 0.28 | 0.00 | 53 | 1017.4 |
| 20260507134016 | 42 | 237 | 16.5 | 24.3 | 0.00 | 0.28 | 0.00 | 53 | 1017.3 |
| 20260507133516 | 42 | 236 | 20.0 | 24.3 | 0.00 | 0.28 | 0.00 | 52 | 1017.2 |
| 20260507133034 | 42 | 246 | 17.4 | 21.7 | 0.00 | 0.28 | 0.00 | 53 | 1017.1 |
| 20260507132515 | 41 | 236 | 16.5 | 20.9 | 0.00 | 0.28 | 0.00 | 52 | 1017.2 |
| 20260507132015 | 41 | 242 | 15.6 | 19.1 | 0.00 | 0.28 | 0.00 | 54 | 1017.2 |
| 20260507131603 | 41 | 242 | 14.8 | 20.9 | 0.00 | 0.28 | 0.00 | 54 | 1017.3 |
| 20260507131016 | 40 | 247 | 15.6 | 20.9 | 0.00 | 0.28 | 0.00 | 55 | 1017.1 |
| 20260507130516 | 40 | 246 | 15.6 | 21.7 | 0.00 | 0.28 | 0.00 | 53 | 1017.1 |
| 20260507130029 | 40 | 244 | 16.5 | 21.7 | 0.00 | 0.28 | 0.00 | 53 | 1017.1 |
| 20260507125516 | 40 | 246 | 17.4 | 21.7 | 0.00 | 0.28 | 0.00 | 52 | 1017.1 |
| 20260507125015 | 40 | 246 | 16.5 | 20.9 | 0.00 | 0.28 | 0.00 | 52 | 1016.9 |
| 20260507124532 | 40 | 250 | 15.6 | 20.9 | 0.00 | 0.28 | 0.00 | 53 | 1016.8 |
| 20260507124017 | 39 | 235 | 15.6 | 19.1 | 0.00 | 0.28 | 0.00 | 55 | 1016.7 |
| 20260507123517 | 38 | 235 | 13.9 | 20.9 | 0.00 | 0.28 | 0.00 | 55 | 1016.6 |
| 20260507123041 | 38 | 240 | 13.9 | 20.9 | 0.00 | 0.28 | 0.00 | 55 | 1016.7 |
| 20260507122518 | 38 | 238 | 15.6 | 20.9 | 0.00 | 0.28 | 0.00 | 54 | 1016.6 |
| 20260507122016 | 38 | 237 | 15.6 | 21.7 | 0.00 | 0.28 | 0.00 | 56 | 1016.5 |
| 20260507121532 | 38 | 236 | 15.6 | 21.7 | 0.00 | 0.28 | 0.00 | 55 | 1016.5 |
| 20260507121016 | 38 | 243 | 17.4 | 21.7 | 0.00 | 0.28 | 0.00 | 55 | 1016.5 |
| 20260507120516 | 38 | 238 | 16.5 | 20.9 | 0.00 | 0.28 | 0.00 | 55 | 1016.5 |
| 20260507120035 | 38 | 234 | 15.6 | 20.9 | 0.00 | 0.28 | 0.00 | 55 | 1016.4 |
| 20260507115515 | 38 | 239 | 15.6 | 20.0 | 0.00 | 0.28 | 0.00 | 55 | 1016.3 |
| 20260507115015 | 38 | 234 | 14.8 | 21.7 | 0.00 | 0.28 | 0.00 | 55 | 1016.4 |
| 20260507114533 | 38 | 230 | 15.6 | 21.7 | 0.00 | 0.28 | 0.00 | 55 | 1016.4 |
| 20260507114020 | 38 | 236 | 14.8 | 19.1 | 0.00 | 0.28 | 0.00 | 54 | 1016.4 |
| 20260507113516 | 38 | 238 | 15.6 | 20.0 | 0.00 | 0.28 | 0.00 | 53 | 1016.4 |
| 20260507113059 | 38 | 237 | 15.6 | 20.0 | 0.00 | 0.28 | 0.00 | 54 | 1016.3 |
| 20260507112520 | 37 | 232 | 14.8 | 19.1 | 0.00 | 0.28 | 0.00 | 55 | 1016.3 |
| 20260507112016 | 37 | 236 | 14.8 | 19.1 | 0.00 | 0.28 | 0.00 | 56 | 1016.3 |
| 20260507111532 | 37 | 234 | 13.9 | 18.2 | 0.00 | 0.28 | 0.00 | 57 | 1016.4 |
| 20260507111016 | 37 | 233 | 12.2 | 17.4 | 0.00 | 0.28 | 0.00 | 57 | 1016.4 |
| 20260507110516 | 36 | 227 | 13.0 | 17.4 | 0.00 | 0.28 | 0.00 | 58 | 1016.4 |
| 20260507110036 | 36 | 235 | 13.0 | 15.6 | 0.00 | 0.28 | 0.00 | 58 | 1016.4 |
| 20260507105520 | 37 | 230 | 12.2 | 17.4 | 0.00 | 0.28 | 0.00 | 57 | 1016.4 |
| 20260507105016 | 37 | 240 | 13.9 | 19.1 | 0.00 | 0.28 | 0.00 | 56 | 1016.5 |
| 20260507104530 | 37 | 238 | 14.8 | 19.1 | 0.00 | 0.28 | 0.00 | 56 | 1016.5 |
| 20260507104014 | 38 | 238 | 14.8 | 20.0 | 0.00 | 0.28 | 0.00 | 55 | 1016.6 |
| 20260507103517 | 37 | 238 | 13.9 | 20.0 | 0.00 | 0.28 | 0.00 | 57 | 1016.6 |
| 20260507103033 | 37 | 234 | 14.8 | 20.0 | 0.00 | 0.28 | 0.00 | 57 | 1016.7 |
| 20260507102515 | 37 | 232 | 14.8 | 20.0 | 0.00 | 0.28 | 0.00 | 58 | 1016.6 |
| 20260507102017 | 37 | 233 | 14.8 | 20.9 | 0.00 | 0.28 | 0.00 | 58 | 1016.7 |
| 20260507101530 | 37 | 240 | 15.6 | 20.9 | 0.00 | 0.28 | 0.00 | 57 | 1016.7 |
| 20260507101015 | 36 | 236 | 14.8 | 20.9 | 0.00 | 0.28 | 0.00 | 59 | 1016.7 |
| 20260507100515 | 36 | 236 | 15.6 | 20.0 | 0.00 | 0.28 | 0.00 | 59 | 1016.8 |
| 20260507100042 | 36 | 234 | 15.6 | 20.0 | 0.00 | 0.28 | 0.00 | 60 | 1016.8 |
| 20260507095515 | 36 | 224 | 14.8 | 20.0 | 0.00 | 0.28 | 0.00 | 60 | 1016.7 |
| 20260507095017 | 36 | 243 | 14.8 | 19.1 | 0.00 | 0.28 | 0.00 | 61 | 1016.8 |
| 20260507094531 | 36 | 237 | 14.8 | 20.0 | 0.00 | 0.28 | 0.00 | 62 | 1016.8 |
| 20260507094017 | 36 | 234 | 14.8 | 20.0 | 0.00 | 0.28 | 0.00 | 61 | 1016.8 |
| 20260507093516 | 36 | 238 | 16.5 | 22.6 | 0.00 | 0.28 | 0.00 | 60 | 1016.9 |
| 20260507093034 | 37 | 241 | 16.5 | 22.6 | 0.00 | 0.28 | 0.00 | 60 | 1016.8 |
| 20260507092517 | 37 | 238 | 14.8 | 20.0 | 0.00 | 0.28 | 0.00 | 59 | 1016.8 |
| 20260507092017 | 36 | 241 | 14.8 | 21.7 | 0.00 | 0.28 | 0.00 | 61 | 1016.9 |
| 20260507091539 | 36 | 241 | 14.8 | 21.7 | 0.00 | 0.28 | 0.00 | 60 | 1016.8 |
| 20260507091016 | 37 | 239 | 16.5 | 20.0 | 0.00 | 0.28 | 0.00 | 60 | 1016.8 |
| 20260507090516 | 36 | 229 | 15.6 | 20.0 | 0.00 | 0.28 | 0.00 | 63 | 1016.9 |
| 20260507090032 | 36 | 229 | 15.6 | 20.9 | 0.00 | 0.28 | 0.00 | 62 | 1016.8 |
| 20260507085515 | 36 | 235 | 15.6 | 20.9 | 0.00 | 0.28 | 0.00 | 62 | 1016.9 |
| 20260507085016 | 36 | 234 | 15.6 | 20.9 | 0.00 | 0.28 | 0.00 | 62 | 1016.9 |
| 20260507084547 | 36 | 234 | 14.8 | 19.1 | 0.00 | 0.28 | 0.00 | 62 | 1016.9 |
| 20260507084016 | 36 | 238 | 14.8 | 19.1 | 0.00 | 0.28 | 0.00 | 63 | 1016.9 |
| 20260507083515 | 35 | 229 | 14.8 | 19.1 | 0.00 | 0.28 | 0.00 | 66 | 1017.0 |
| 20260507083031 | 35 | 235 | 13.9 | 19.1 | 0.00 | 0.28 | 0.00 | 67 | 1017.0 |
| 20260507082516 | 35 | 222 | 13.9 | 19.1 | 0.00 | 0.28 | 0.00 | 67 | 1017.0 |
| 20260507082016 | 35 | 240 | 13.9 | 19.1 | 0.00 | 0.28 | 0.00 | 68 | 1017.1 |
| 20260507081530 | 35 | 234 | 14.8 | 20.0 | 0.00 | 0.28 | 0.00 | 68 | 1017.2 |
| 20260507081017 | 35 | 248 | 14.8 | 20.9 | 0.00 | 0.28 | 0.00 | 69 | 1017.1 |
| 20260507080515 | 35 | 219 | 16.5 | 21.7 | 0.00 | 0.28 | 0.00 | 68 | 1017.1 |
| 20260507080035 | 36 | 240 | 17.4 | 21.7 | 0.00 | 0.28 | 0.00 | 68 | 1017.2 |
| 20260507075517 | 35 | 227 | 16.5 | 21.7 | 0.00 | 0.28 | 0.00 | 69 | 1017.3 |
| 20260507075022 | 35 | 252 | 16.5 | 21.7 | 0.00 | 0.28 | 0.00 | 70 | 1017.3 |
| 20260507074532 | 35 | 242 | 16.5 | 22.6 | 0.00 | 0.28 | 0.00 | 72 | 1017.3 |
| 20260507074015 | 34 | 240 | 15.6 | 22.6 | 0.00 | 0.28 | 0.00 | 76 | 1017.5 |
| 20260507073514 | 32 | 239 | 13.0 | 17.4 | 0.00 | 0.28 | 0.00 | 78 | 1017.5 |
| 20260507073030 | 33 | 229 | 13.0 | 18.2 | 0.00 | 0.28 | 0.00 | 77 | 1017.6 |
| 20260507072516 | 34 | 235 | 13.0 | 18.2 | 0.00 | 0.28 | 0.00 | 75 | 1017.6 |
| 20260507072015 | 35 | 238 | 15.6 | 18.2 | 0.00 | 0.28 | 0.00 | 75 | 1017.6 |
| 20260507071537 | 34 | 232 | 14.8 | 18.2 | 0.00 | 0.28 | 0.00 | 76 | 1017.7 |
| 20260507071017 | 34 | 224 | 15.6 | 18.2 | 0.00 | 0.28 | 0.00 | 77 | 1017.7 |
| 20260507070517 | 34 | 236 | 14.8 | 18.2 | 0.00 | 0.28 | 0.00 | 78 | 1017.5 |
| 20260507070033 | 34 | 228 | 14.8 | 18.2 | 0.00 | 0.28 | 0.00 | 78 | 1017.6 |
| 20260507065515 | 34 | 239 | 14.8 | 18.2 | 0.00 | 0.28 | 0.00 | 79 | 1017.7 |
| 20260507065016 | 33 | 236 | 13.9 | 18.2 | 0.00 | 0.28 | 0.00 | 79 | 1017.8 |
| 20260507064533 | 33 | 239 | 13.0 | 16.5 | 0.00 | 0.28 | 0.00 | 79 | 1017.7 |
| 20260507064016 | 33 | 238 | 13.0 | 16.5 | 0.00 | 0.28 | 0.00 | 80 | 1017.7 |
| 20260507063518 | 33 | 240 | 13.0 | 16.5 | 0.00 | 0.28 | 0.00 | 79 | 1017.8 |
| 20260507063030 | 34 | 237 | 13.0 | 16.5 | 0.00 | 0.28 | 0.00 | 79 | 1017.8 |
| 20260507062512 | 33 | 240 | 11.3 | 16.5 | 0.00 | 0.28 | 0.00 | 79 | 1017.8 |
| 20260507062015 | 33 | 242 | 12.2 | 16.5 | 0.00 | 0.28 | 0.00 | 79 | 1017.9 |
| 20260507061536 | 34 | 242 | 12.2 | 16.5 | 0.00 | 0.28 | 0.00 | 80 | 1017.9 |
| 20260507061015 | 33 | 242 | 12.2 | 15.6 | 0.00 | 0.28 | 0.00 | 81 | 1017.9 |
| 20260507060516 | 33 | 238 | 12.2 | 14.8 | 0.00 | 0.28 | 0.00 | 83 | 1017.9 |
| 20260507060037 | 33 | 237 | 11.3 | 13.9 | 0.00 | 0.28 | 0.00 | 84 | 1018.0 |
| 20260507055516 | 31 | 240 | 9.6 | 13.9 | 0.00 | 0.28 | 0.28 | 86 | 1018.1 |
| 20260507055015 | 31 | 229 | 8.7 | 13.9 | 0.00 | 0.28 | 0.28 | 86 | 1018.1 |
| 20260507054539 | 31 | 218 | 10.4 | 13.9 | 0.00 | 0.28 | 0.28 | 87 | 1018.1 |
| 20260507054020 | 31 | 232 | 9.6 | 13.0 | 0.00 | 0.28 | 0.28 | 87 | 1018.0 |
| 20260507053517 | 31 | 217 | 8.7 | 13.0 | 0.00 | 0.28 | 0.28 | 87 | 1018.0 |
| 20260507053032 | 31 | 214 | 9.6 | 13.0 | 0.00 | 0.28 | 0.28 | 88 | 1018.1 |
| 20260507052515 | 31 | 211 | 7.8 | 13.0 | 0.00 | 0.28 | 0.28 | 87 | 1018.1 |
| 20260507052016 | 31 | 208 | 7.8 | 13.0 | 0.00 | 0.28 | 0.28 | 87 | 1018.1 |
| 20260507051532 | 31 | 223 | 8.7 | 14.8 | 0.00 | 0.28 | 0.28 | 87 | 1018.2 |
| 20260507051021 | 31 | 209 | 10.4 | 14.8 | 0.00 | 0.28 | 0.28 | 87 | 1018.2 |
| 20260507050515 | 31 | 214 | 10.4 | 13.9 | 0.00 | 0.28 | 0.28 | 87 | 1018.2 |
| 20260507050054 | 31 | 220 | 9.6 | 13.0 | 0.00 | 0.28 | 0.28 | 87 | 1018.2 |
| 20260507045515 | 31 | 209 | 9.6 | 15.6 | 0.00 | 0.28 | 0.28 | 87 | 1018.1 |
| 20260507045016 | 32 | 217 | 10.4 | 15.6 | 0.00 | 0.28 | 0.28 | 87 | 1018.1 |
| 20260507044545 | 31 | 207 | 10.4 | 14.8 | 0.00 | 0.28 | 0.28 | 87 | 1018.1 |
| 20260507044017 | 32 | 212 | 10.4 | 13.9 | 0.00 | 0.28 | 0.28 | 87 | 1018.1 |
| 20260507043516 | 32 | 212 | 10.4 | 13.9 | 0.00 | 0.28 | 0.28 | 87 | 1018.1 |
| 20260507043033 | 32 | 207 | 9.6 | 13.9 | 0.00 | 0.28 | 0.28 | 86 | 1018.2 |
| 20260507042516 | 32 | 218 | 10.4 | 15.6 | 0.00 | 0.28 | 0.28 | 87 | 1018.3 |
| 20260507042016 | 32 | 208 | 11.3 | 15.6 | 0.00 | 0.28 | 0.28 | 87 | 1018.3 |
| 20260507041533 | 32 | 215 | 10.4 | 14.8 | 0.00 | 0.28 | 0.28 | 87 | 1018.3 |
| 20260507041016 | 32 | 215 | 11.3 | 15.6 | 0.00 | 0.28 | 0.28 | 86 | 1018.3 |
| 20260507040516 | 32 | 204 | 11.3 | 15.6 | 0.00 | 0.28 | 0.28 | 86 | 1018.1 |
| 20260507040032 | 32 | 209 | 11.3 | 14.8 | 0.00 | 0.28 | 0.28 | 86 | 1018.1 |
| 20260507035515 | 32 | 217 | 11.3 | 15.6 | 0.00 | 0.28 | 0.28 | 86 | 1018.1 |
| 20260507035016 | 32 | 204 | 11.3 | 15.6 | 0.00 | 0.28 | 0.28 | 86 | 1018.0 |
| 20260507034535 | 33 | 202 | 10.4 | 14.8 | 0.00 | 0.28 | 0.28 | 86 | 1017.9 |
| 20260507034018 | 33 | 188 | 11.3 | 13.9 | 0.00 | 0.28 | 0.28 | 86 | 1017.9 |
| 20260507033515 | 32 | 201 | 10.4 | 13.0 | 0.00 | 0.28 | 0.28 | 86 | 1017.9 |
| 20260507033039 | 32 | 207 | 9.6 | 13.9 | 0.00 | 0.28 | 0.28 | 86 | 1017.9 |
| 20260507032516 | 32 | 207 | 9.6 | 13.9 | 0.00 | 0.28 | 0.28 | 86 | 1018.0 |
| 20260507032015 | 33 | 198 | 9.6 | 13.9 | 0.00 | 0.28 | 0.28 | 86 | 1017.9 |
| 20260507031533 | 33 | 181 | 9.6 | 13.9 | 0.00 | 0.28 | 0.28 | 86 | 1017.9 |
| 20260507031016 | 33 | 180 | 10.4 | 13.9 | 0.00 | 0.28 | 0.28 | 86 | 1017.9 |
| 20260507030518 | 32 | 183 | 8.7 | 13.9 | 0.00 | 0.28 | 0.28 | 85 | 1017.9 |
| 20260507030036 | 32 | 172 | 9.6 | 13.9 | 0.00 | 0.28 | 0.28 | 85 | 1017.9 |
| 20260507025516 | 32 | 178 | 9.6 | 13.9 | 0.00 | 0.29 | 0.28 | 84 | 1017.8 |
| 20260507025018 | 32 | 170 | 9.6 | 14.8 | 0.00 | 0.29 | 0.28 | 84 | 1017.8 |
| 20260507024540 | 33 | 177 | 8.7 | 14.8 | 0.00 | 0.29 | 0.28 | 84 | 1017.8 |
| 20260507024015 | 32 | 170 | 8.7 | 13.0 | 0.00 | 0.29 | 0.28 | 84 | 1017.9 |
| 20260507023515 | 32 | 190 | 8.7 | 12.2 | 0.00 | 0.29 | 0.28 | 85 | 1017.9 |
| 20260507023032 | 32 | 172 | 7.8 | 12.2 | 0.00 | 0.29 | 0.28 | 85 | 1017.8 |
| 20260507022516 | 32 | 182 | 7.0 | 10.4 | 0.00 | 0.29 | 0.28 | 86 | 1017.8 |
| 20260507022015 | 32 | 175 | 7.8 | 10.4 | 0.00 | 0.29 | 0.28 | 86 | 1017.9 |
| 20260507021546 | 32 | 182 | 7.8 | 11.3 | 0.00 | 0.29 | 0.28 | 86 | 1017.8 |
| 20260507021015 | 32 | 180 | 7.8 | 11.3 | 0.00 | 0.29 | 0.28 | 86 | 1017.7 |
| 20260507020516 | 32 | 172 | 7.8 | 10.4 | 0.00 | 0.29 | 0.28 | 87 | 1017.7 |
| 20260507020032 | 32 | 180 | 7.0 | 9.6 | 0.00 | 0.29 | 0.28 | 86 | 1017.8 |
| 20260507015515 | 32 | 175 | 7.0 | 9.6 | 0.00 | 0.29 | 0.28 | 86 | 1017.9 |
| 20260507015015 | 32 | 170 | 7.8 | 9.6 | 0.00 | 0.29 | 0.28 | 85 | 1017.9 |
| 20260507014532 | 32 | 165 | 7.0 | 8.7 | 0.00 | 0.29 | 0.28 | 84 | 1017.9 |
| 20260507014020 | 33 | 161 | 6.1 | 7.8 | 0.00 | 0.29 | 0.28 | 84 | 1017.9 |
| 20260507013517 | 33 | 158 | 5.2 | 7.8 | 0.00 | 0.29 | 0.28 | 83 | 1018.0 |
| 20260507013035 | 34 | 169 | 5.2 | 8.7 | 0.00 | 0.29 | 0.28 | 82 | 1018.0 |
| 20260507012517 | 34 | 172 | 6.1 | 8.7 | 0.00 | 0.29 | 0.28 | 82 | 1018.0 |
| 20260507012016 | 35 | 186 | 6.1 | 7.8 | 0.00 | 0.29 | 0.28 | 81 | 1018.1 |
| 20260507011536 | 35 | 180 | 5.2 | 8.7 | 0.00 | 0.29 | 0.28 | 81 | 1018.1 |
| 20260507011015 | 35 | 177 | 6.1 | 8.7 | 0.00 | 0.29 | 0.28 | 80 | 1018.2 |
| 20260507010518 | 35 | 187 | 4.3 | 9.6 | 0.00 | 0.29 | 0.28 | 80 | 1018.1 |
| 20260507010040 | 35 | 194 | 7.0 | 9.6 | 0.00 | 0.29 | 0.28 | 79 | 1018.2 |
| 20260507005516 | 35 | 180 | 7.0 | 8.7 | 0.00 | 0.29 | 0.28 | 79 | 1018.2 |
| 20260507005024 | 36 | 184 | 5.2 | 8.7 | 0.00 | 0.29 | 0.28 | 79 | 1018.2 |
| 20260507004530 | 36 | 207 | 5.2 | 8.7 | 0.00 | 0.29 | 0.28 | 79 | 1018.2 |
| 20260507004017 | 36 | 213 | 4.3 | 7.0 | 0.00 | 0.29 | 0.28 | 79 | 1018.3 |
| 20260507003515 | 36 | 228 | 3.5 | 6.1 | 0.00 | 0.29 | 0.28 | 78 | 1018.3 |
| 20260507003030 | 36 | 219 | 3.5 | 7.0 | 0.00 | 0.29 | 0.28 | 79 | 1018.2 |
| 20260507002518 | 36 | 177 | 4.3 | 7.0 | 0.00 | 0.29 | 0.28 | 79 | 1018.3 |
| 20260507002016 | 36 | 236 | 4.3 | 8.7 | 0.00 | 0.29 | 0.28 | 79 | 1018.3 |
| 20260507001533 | 36 | 200 | 3.5 | 8.7 | 0.00 | 0.29 | 0.28 | 79 | 1018.3 |
| 20260507001015 | 35 | 194 | 3.5 | 7.8 | 0.00 | 0.29 | 0.28 | 80 | 1018.3 |
| 20260507000522 | 35 | 185 | 4.3 | 7.8 | 0.00 | 0.29 | 0.28 | 81 | 1018.2 |
| 20260507000034 | 35 | 153 | 5.2 | 8.7 | 0.00 | 0.29 | 0.28 | 81 | 1018.3 |
| 20260506235516 | 35 | 211 | 5.2 | 8.7 | 0.00 | 0.29 | 0.28 | 79 | 1018.3 |
| 20260506235020 | 35 | 178 | 5.2 | 8.7 | 0.00 | 0.29 | 0.28 | 79 | 1018.3 |
| 20260506234530 | 35 | 191 | 5.2 | 8.7 | 0.00 | 0.29 | 0.28 | 79 | 1018.3 |
| 20260506234017 | 35 | 167 | 4.3 | 7.8 | 0.00 | 0.29 | 0.28 | 79 | 1018.4 |
| 20260506233516 | 35 | 213 | 3.5 | 7.8 | 0.00 | 0.29 | 0.28 | 81 | 1018.5 |
| 20260506233033 | 35 | 203 | 2.6 | 10.4 | 0.00 | 0.29 | 0.28 | 80 | 1018.6 |
| 20260506232520 | 35 | 211 | 6.1 | 10.4 | 0.00 | 0.29 | 0.28 | 80 | 1018.6 |
| 20260506232015 | 34 | 198 | 3.5 | 7.8 | 0.00 | 0.29 | 0.28 | 80 | 1018.5 |
| 20260506231532 | 34 | 196 | 3.5 | 7.8 | 0.00 | 0.29 | 0.28 | 81 | 1018.6 |
| 20260506231016 | 34 | 192 | 3.5 | 9.6 | 0.00 | 0.29 | 0.28 | 80 | 1018.5 |
| 20260506230515 | 34 | 165 | 6.1 | 10.4 | 0.00 | 0.29 | 0.28 | 82 | 1018.6 |
| 20260506230034 | 33 | 221 | 6.1 | 10.4 | 0.00 | 0.29 | 0.28 | 83 | 1018.6 |
| 20260506225518 | 33 | 194 | 4.3 | 12.2 | 0.00 | 0.34 | 0.28 | 81 | 1018.7 |
| 20260506225016 | 34 | 222 | 7.0 | 12.2 | 0.00 | 0.34 | 0.28 | 81 | 1018.7 |
| 20260506224533 | 34 | 241 | 7.0 | 9.6 | 0.00 | 0.34 | 0.28 | 82 | 1018.9 |
| 20260506224019 | 33 | 194 | 4.3 | 9.6 | 0.00 | 0.34 | 0.28 | 82 | 1018.9 |
| 20260506223516 | 33 | 223 | 7.0 | 9.6 | 0.00 | 0.34 | 0.28 | 81 | 1019.0 |
| 20260506223030 | 34 | 245 | 7.0 | 9.6 | 0.00 | 0.34 | 0.28 | 83 | 1019.1 |
| 20260506222516 | 34 | 217 | 5.2 | 9.6 | 0.00 | 0.34 | 0.28 | 84 | 1019.1 |
| 20260506222016 | 33 | 195 | 4.3 | 8.7 | 0.00 | 0.34 | 0.28 | 83 | 1019.1 |
| 20260506221530 | 33 | 229 | 4.3 | 7.8 | 0.00 | 0.34 | 0.28 | 85 | 1019.1 |
| 20260506221016 | 33 | 229 | 3.5 | 6.1 | 0.00 | 0.34 | 0.28 | 83 | 1019.2 |
| 20260506220516 | 33 | 227 | 1.7 | 3.5 | 0.00 | 0.34 | 0.28 | 83 | 1019.2 |
| 20260506220035 | 33 | 230 | 1.7 | 4.3 | 0.00 | 0.34 | 0.28 | 83 | 1019.2 |
| 20260506215515 | 33 | 232 | 1.7 | 6.1 | 0.00 | 0.36 | 0.28 | 82 | 1019.3 |
| 20260506215014 | 33 | 241 | 2.6 | 6.1 | 0.00 | 0.36 | 0.28 | 81 | 1019.2 |
| 20260506214532 | 34 | 252 | 2.6 | 6.1 | 0.00 | 0.36 | 0.28 | 81 | 1019.3 |
| 20260506214016 | 34 | 279 | 1.7 | 7.0 | 0.00 | 0.36 | 0.28 | 82 | 1019.4 |
| 20260506213515 | 34 | 238 | 3.5 | 7.0 | 0.00 | 0.36 | 0.28 | 83 | 1019.3 |
| 20260506213032 | 33 | 257 | 1.7 | 6.1 | 0.00 | 0.36 | 0.28 | 84 | 1019.4 |
| 20260506212516 | 34 | 267 | 2.6 | 5.2 | 0.00 | 0.36 | 0.28 | 83 | 1019.5 |
| 20260506212020 | 34 | 257 | 2.6 | 5.2 | 0.00 | 0.36 | 0.28 | 85 | 1019.5 |
| 20260506211533 | 34 | 317 | 1.7 | 3.5 | 0.00 | 0.36 | 0.28 | 85 | 1019.5 |
| 20260506211016 | 33 | 289 | 1.7 | 3.5 | 0.00 | 0.36 | 0.28 | 84 | 1019.6 |
| 20260506210516 | 33 | 294 | 1.7 | 3.5 | 0.00 | 0.36 | 0.28 | 83 | 1019.5 |
| 20260506210036 | 33 | 269 | 1.7 | 3.5 | 0.00 | 0.36 | 0.28 | 82 | 1019.7 |
| 20260506205515 | 34 | 263 | 1.7 | 3.5 | 0.00 | 0.37 | 0.28 | 80 | 1019.6 |
| 20260506205018 | 36 | 262 | 1.7 | 3.5 | 0.00 | 0.37 | 0.28 | 79 | 1019.7 |
| 20260506204547 | 39 | 338 | 0.9 | 2.6 | 0.00 | 0.37 | 0.28 | 82 | 1019.7 |
| 20260506204017 | 39 | 28 | 0.0 | 3.5 | 0.00 | 0.37 | 0.28 | 84 | 1019.8 |
| 20260506203518 | 39 | 349 | 1.7 | 4.3 | 0.00 | 0.37 | 0.28 | 81 | 1019.8 |
| 20260506203031 | 39 | 26 | 1.7 | 4.3 | 0.00 | 0.37 | 0.28 | 82 | 1019.8 |
| 20260506202515 | 40 | 29 | 2.6 | 5.2 | 0.00 | 0.37 | 0.28 | 83 | 1019.8 |
| 20260506202017 | 39 | 51 | 2.6 | 5.2 | 0.00 | 0.37 | 0.28 | 83 | 1019.8 |
| 20260506201534 | 39 | 34 | 2.6 | 6.1 | 0.01 | 0.37 | 0.28 | 83 | 1019.8 |
| 20260506201014 | 38 | 27 | 2.6 | 8.7 | 0.01 | 0.37 | 0.28 | 84 | 1019.8 |
| 20260506200516 | 38 | 51 | 4.3 | 8.7 | 0.01 | 0.37 | 0.28 | 83 | 1019.9 |
| 20260506200034 | 38 | 49 | 3.5 | 8.7 | 0.02 | 0.37 | 0.28 | 84 | 1019.9 |
| 20260506195516 | 38 | 34 | 6.1 | 8.7 | 0.02 | 0.38 | 0.28 | 83 | 1020.0 |
| 20260506195019 | 38 | 20 | 6.1 | 8.7 | 0.02 | 0.38 | 0.28 | 84 | 1020.0 |
| 20260506194534 | 38 | 19 | 5.2 | 8.7 | 0.03 | 0.38 | 0.28 | 85 | 1019.9 |
| 20260506194015 | 38 | 29 | 6.1 | 8.7 | 0.03 | 0.38 | 0.28 | 86 | 1019.9 |
| 20260506193515 | 37 | 36 | 5.2 | 8.7 | 0.03 | 0.38 | 0.28 | 86 | 1019.9 |
| 20260506193030 | 37 | 34 | 5.2 | 8.7 | 0.04 | 0.38 | 0.28 | 87 | 1020.0 |
| 20260506192516 | 37 | 29 | 6.1 | 9.6 | 0.04 | 0.38 | 0.28 | 88 | 1020.1 |
| 20260506192015 | 37 | 19 | 6.1 | 9.6 | 0.05 | 0.38 | 0.28 | 89 | 1020.0 |
| 20260506191530 | 36 | 19 | 7.0 | 8.7 | 0.05 | 0.37 | 0.27 | 89 | 1020.0 |
| 20260506191015 | 36 | 24 | 7.0 | 9.6 | 0.05 | 0.37 | 0.27 | 90 | 1020.1 |
| 20260506190515 | 36 | 28 | 7.0 | 9.6 | 0.06 | 0.37 | 0.27 | 91 | 1020.1 |
| 20260506190030 | 35 | 24 | 7.8 | 9.6 | 0.06 | 0.36 | 0.26 | 92 | 1020.1 |
| 20260506185516 | 34 | 26 | 7.0 | 9.6 | 0.06 | 0.38 | 0.26 | 92 | 1020.0 |
| 20260506185016 | 34 | 20 | 7.0 | 9.6 | 0.07 | 0.38 | 0.26 | 92 | 1020.2 |
| 20260506184530 | 34 | 27 | 7.8 | 10.4 | 0.07 | 0.37 | 0.25 | 92 | 1020.3 |
| 20260506184016 | 34 | 33 | 8.7 | 11.3 | 0.07 | 0.37 | 0.25 | 92 | 1020.2 |
| 20260506183516 | 34 | 31 | 8.7 | 11.3 | 0.08 | 0.37 | 0.25 | 92 | 1020.4 |
| 20260506183033 | 34 | 33 | 9.6 | 13.0 | 0.08 | 0.36 | 0.24 | 93 | 1020.2 |
| 20260506182516 | 34 | 45 | 9.6 | 13.0 | 0.09 | 0.36 | 0.24 | 94 | 1020.2 |
| 20260506182015 | 33 | 42 | 10.4 | 13.9 | 0.08 | 0.35 | 0.23 | 94 | 1020.2 |
| 20260506181532 | 33 | 50 | 10.4 | 13.9 | 0.08 | 0.34 | 0.22 | 94 | 1020.2 |
| 20260506181019 | 32 | 57 | 11.3 | 13.9 | 0.08 | 0.33 | 0.21 | 94 | 1020.1 |
| 20260506180521 | 32 | 45 | 10.4 | 14.8 | 0.09 | 0.33 | 0.21 | 94 | 1020.2 |
| 20260506180030 | 32 | 55 | 11.3 | 14.8 | 0.09 | 0.32 | 0.20 | 95 | 1020.2 |
| 20260506175515 | 31 | 56 | 12.2 | 15.6 | 0.10 | 0.33 | 0.20 | 95 | 1020.1 |
| 20260506175015 | 31 | 49 | 12.2 | 16.5 | 0.10 | 0.32 | 0.19 | 95 | 1020.0 |
| 20260506174531 | 31 | 50 | 13.0 | 16.5 | 0.10 | 0.31 | 0.18 | 95 | 1020.1 |
| 20260506174020 | 31 | 43 | 12.2 | 15.6 | 0.10 | 0.31 | 0.18 | 95 | 1020.1 |
| 20260506173516 | 31 | 46 | 11.3 | 16.5 | 0.10 | 0.30 | 0.17 | 95 | 1020.1 |
| 20260506173033 | 31 | 44 | 13.0 | 16.5 | 0.09 | 0.29 | 0.16 | 95 | 1020.0 |
| 20260506172515 | 31 | 40 | 13.0 | 17.4 | 0.08 | 0.28 | 0.15 | 95 | 1019.8 |
| 20260506172016 | 31 | 41 | 13.9 | 17.4 | 0.07 | 0.27 | 0.14 | 96 | 1019.7 |
| 20260506171540 | 31 | 55 | 13.0 | 17.4 | 0.07 | 0.27 | 0.14 | 95 | 1019.7 |
| 20260506171016 | 31 | 58 | 14.8 | 18.2 | 0.07 | 0.26 | 0.13 | 95 | 1019.4 |
| 20260506170517 | 31 | 69 | 13.9 | 18.2 | 0.06 | 0.25 | 0.12 | 95 | 1019.3 |
| 20260506170035 | 32 | 52 | 12.2 | 16.5 | 0.05 | 0.24 | 0.11 | 96 | 1019.2 |
| 20260506165518 | 32 | 44 | 13.0 | 16.5 | 0.05 | 0.24 | 0.10 | 96 | 1019.1 |
| 20260506165016 | 33 | 38 | 9.6 | 15.6 | 0.04 | 0.23 | 0.09 | 96 | 1019.2 |
| 20260506164530 | 33 | 17 | 8.7 | 11.3 | 0.04 | 0.22 | 0.08 | 96 | 1019.3 |
| 20260506164017 | 33 | 15 | 8.7 | 11.3 | 0.03 | 0.21 | 0.07 | 96 | 1019.4 |
| 20260506163518 | 32 | 13 | 7.8 | 11.3 | 0.03 | 0.21 | 0.07 | 96 | 1019.4 |
| 20260506163032 | 32 | 5 | 8.7 | 11.3 | 0.04 | 0.21 | 0.07 | 96 | 1019.2 |
| 20260506162515 | 32 | 21 | 7.8 | 10.4 | 0.04 | 0.21 | 0.07 | 96 | 1019.2 |
| 20260506162015 | 32 | 13 | 7.8 | 11.3 | 0.04 | 0.21 | 0.07 | 96 | 1019.1 |
| 20260506161539 | 32 | 18 | 8.7 | 11.3 | 0.07 | 0.21 | 0.07 | 96 | 1019.1 |
| 20260506161016 | 32 | 15 | 8.7 | 10.4 | 0.06 | 0.20 | 0.06 | 96 | 1019.1 |
| 20260506160518 | 31 | 11 | 7.8 | 10.4 | 0.06 | 0.20 | 0.06 | 96 | 1019.2 |
| 20260506160043 | 31 | 5 | 8.7 | 11.3 | 0.06 | 0.20 | 0.06 | 96 | 1019.2 |